Location: Croisilles
(50.1998°N, 2.8793°E)
Time: 12:59:47
(UTC+00:00)

ATLAS 2AS CENTAUR R/B - Pass Details

Date: 21 January 2021
Orbit: 947 x 1265 km, 63.7° (Epoch: 13 February)

Event Time Altitude Azimuth Distance (km) Brightness Sun altitude
Rises 19:17:01 0° 279° (W) 4,222 7.1 -27.3°
Reaches altitude 10° 19:20:17 10° 290° (WNW) 3,242 6.1 -27.8°
Maximum altitude 19:27:06 31° 350° (N) 2,016 4.2 -28.9°
Enters shadow 19:29:34 26° 21° (NNE) 2,194 4.1 -29.3°
